When you browse on this site, cookies collect data to enhance your experience and personalize the content and advertising you see.
Visit our Privacy Policy to learn more. By continuing to use the site, you agree to this use of cookies and data.
  • In United Kingdom
  • List of Countries
  • For 7 days
  • Water Temperature
  • Satellite Maps
  • Weather Map
  • Weather Widgets
  • user-avatar
    Login

    Hourly Weather Naftalan

    Today, 19 July, Friday

    Time Temperature Precipitation Wind Pressure Humidity
    00:00 +26°C° 0 mm 1 mps 756 mmHg 76%
    01:00 +26°C° 0 mm 1 mps 756 mmHg 75%
    02:00 +26°C° 0 mm 2 mps 756 mmHg 75%
    03:00 +26°C° 0 mm 3 mps 756 mmHg 74%
    04:00 +27°C° 0 mm 3 mps 757 mmHg 70%
    05:00 +27°C° 0 mm 3 mps 758 mmHg 66%
    06:00 +28°C° 0 mm 3 mps 758 mmHg 62%
    07:00 +30°C° 0 mm 4 mps 758 mmHg 56%
    08:00 +32°C° 0 mm 4 mps 758 mmHg 51%
    09:00 +33°C° 0 mm 4 mps 759 mmHg 43%
    10:00 +34°C° 0 mm 4 mps 759 mmHg 41%
    11:00 +34°C° 0 mm 5 mps 759 mmHg 40%
    12:00 +35°C° 0 mm 5 mps 759 mmHg 39%
    13:00 +35°C° 0 mm 5 mps 758 mmHg 40%
    14:00 +34°C° 0 mm 5 mps 758 mmHg 41%
    15:00 +34°C° 0 mm 4 mps 758 mmHg 41%
    16:00 +33°C° 0 mm 4 mps 758 mmHg 43%
    17:00 +33°C° 0 mm 3 mps 759 mmHg 46%
    18:00 +31°C° 0 mm 3 mps 759 mmHg 49%
    19:00 +30°C° 0 mm 3 mps 759 mmHg 52%
    20:00 +29°C° 0 mm 3 mps 760 mmHg 56%
    21:00 +28°C° 0 mm 3 mps 760 mmHg 59%
    22:00 +28°C° 0 mm 3 mps 761 mmHg 58%
    23:00 +28°C° 0 mm 2 mps 761 mmHg 57%

    Tomorrow, 20 July, Saturday

    Time Temperature Precipitation Wind Pressure Humidity
    00:00 +28°C° 0 mm 2 mps 761 mmHg 55%
    01:00 +28°C° 0 mm 2 mps 761 mmHg 55%
    02:00 +28°C° 0 mm 2 mps 761 mmHg 54%
    03:00 +27°C° 0 mm 2 mps 761 mmHg 54%
    04:00 +28°C° 0 mm 2 mps 761 mmHg 51%
    05:00 +29°C° 0 mm 2 mps 762 mmHg 47%
    06:00 +29°C° 0 mm 3 mps 762 mmHg 44%
    07:00 +31°C° 0 mm 2 mps 762 mmHg 41%
    08:00 +34°C° 0 mm 2 mps 762 mmHg 37%
    09:00 +35°C° 0 mm 2 mps 763 mmHg 33%
    10:00 +36°C° 0 mm 3 mps 762 mmHg 33%
    11:00 +36°C° 0 mm 3 mps 762 mmHg 32%
    12:00 +37°C° 0 mm 4 mps 762 mmHg 31%
    13:00 +37°C° 0 mm 4 mps 762 mmHg 33%
    14:00 +36°C° 0 mm 5 mps 762 mmHg 36%
    15:00 +36°C° 0 mm 6 mps 761 mmHg 38%
    16:00 +35°C° 0 mm 5 mps 762 mmHg 40%
    17:00 +34°C° 0 mm 4 mps 762 mmHg 42%
    18:00 +34°C° 0 mm 4 mps 762 mmHg 44%
    19:00 +31°C° 0 mm 3 mps 762 mmHg 47%
    20:00 +30°C° 0 mm 3 mps 763 mmHg 50%
    21:00 +29°C° 0 mm 2 mps 763 mmHg 53%
    22:00 +29°C° 0 mm 2 mps 763 mmHg 54%
    23:00 +28°C° 0 mm 2 mps 763 mmHg 55%

    Day after tomorrow, 21 July, Sunday

    Time Temperature Precipitation Wind Pressure Humidity
    00:00 +28°C° 0 mm 1 mps 763 mmHg 56%
    01:00 +28°C° 0 mm 1 mps 763 mmHg 56%
    02:00 +28°C° 0 mm 2 mps 763 mmHg 55%
    03:00 +27°C° 0 mm 2 mps 763 mmHg 55%
    04:00 +28°C° 0 mm 2 mps 763 mmHg 52%
    05:00 +29°C° 0 mm 2 mps 763 mmHg 49%
    06:00 +30°C° 0 mm 3 mps 763 mmHg 46%
    07:00 +31°C° 0 mm 3 mps 763 mmHg 42%
    08:00 +34°C° 0 mm 3 mps 763 mmHg 39%
    09:00 +36°C° 0 mm 3 mps 763 mmHg 35%
    10:00 +36°C° 0 mm 4 mps 762 mmHg 35%
    11:00 +37°C° 0 mm 5 mps 762 mmHg 35%
    12:00 +38°C° 0 mm 6 mps 761 mmHg 35%
    13:00 +38°C° 0 mm 6 mps 761 mmHg 36%
    14:00 +38°C° 0 mm 6 mps 760 mmHg 38%
    15:00 +36°C° 0 mm 6 mps 760 mmHg 40%
    16:00 +35°C° 0 mm 5 mps 760 mmHg 45%
    17:00 +33°C° 0 mm 4 mps 760 mmHg 51%
    18:00 +32°C° 0 mm 4 mps 760 mmHg 57%
    19:00 +29°C° 0 mm 3 mps 760 mmHg 64%
    20:00 +28°C° 0 mm 2 mps 760 mmHg 72%
    21:00 +27°C° 0 mm 1 mps 760 mmHg 79%
    22:00 +27°C° 0 mm 2 mps 760 mmHg 81%
    23:00 +27°C° 0 mm 2 mps 760 mmHg 82%

    22 July, Monday

    Time Temperature Precipitation Wind Pressure Humidity
    00:00 +26°C° 0 mm 3 mps 760 mmHg 84%
    01:00 +26°C° 0 mm 2 mps 760 mmHg 85%
    02:00 +26°C° 0 mm 2 mps 759 mmHg 85%
    03:00 +25°C° 0 mm 1 mps 759 mmHg 86%
    04:00 +26°C° 0 mm 1 mps 759 mmHg 82%
    05:00 +27°C° 0 mm 1 mps 759 mmHg 77%
    06:00 +28°C° 0 mm 1 mps 759 mmHg 73%
    07:00 +29°C° 0 mm 2 mps 759 mmHg 65%
    08:00 +31°C° 0 mm 3 mps 759 mmHg 57%
    09:00 +33°C° 0 mm 4 mps 759 mmHg 49%
    10:00 +34°C° 0 mm 4 mps 759 mmHg 49%
    11:00 +34°C° 0 mm 5 mps 759 mmHg 48%
    12:00 +35°C° 0 mm 5 mps 759 mmHg 48%
    13:00 +35°C° 0 mm 5 mps 758 mmHg 51%
    14:00 +34°C° 0 mm 6 mps 758 mmHg 54%
    15:00 +34°C° 0 mm 6 mps 758 mmHg 57%
    16:00 +33°C° 0 mm 5 mps 758 mmHg 61%
    17:00 +32°C° 0 mm 4 mps 758 mmHg 65%
    18:00 +30°C° 0 mm 4 mps 758 mmHg 69%
    19:00 +29°C° 0 mm 4 mps 758 mmHg 71%
    20:00 +29°C° 0 mm 4 mps 758 mmHg 72%
    21:00 +28°C° 0 mm 4 mps 759 mmHg 74%
    22:00 +28°C° 0 mm 4 mps 758 mmHg 72%
    23:00 +28°C° 0 mm 4 mps 758 mmHg 70%

    23 July, Tuesday

    Time Temperature Precipitation Wind Pressure Humidity
    00:00 +28°C° 0 mm 4 mps 758 mmHg 69%
    01:00 +28°C° 0 mm 4 mps 758 mmHg 69%
    02:00 +28°C° 0 mm 4 mps 758 mmHg 69%
    03:00 +28°C° 0 mm 4 mps 758 mmHg 69%
    04:00 +28°C° 0 mm 4 mps 758 mmHg 67%
    05:00 +29°C° 0 mm 4 mps 758 mmHg 65%
    06:00 +29°C° 0 mm 4 mps 759 mmHg 63%
    07:00 +30°C° 0 mm 4 mps 759 mmHg 58%
    08:00 +32°C° 0 mm 4 mps 759 mmHg 53%
    09:00 +34°C° 0 mm 4 mps 759 mmHg 48%
    10:00 +34°C° 0 mm 5 mps 758 mmHg 46%
    11:00 +35°C° 0 mm 5 mps 758 mmHg 44%
    12:00 +35°C° 0 mm 6 mps 757 mmHg 42%
    13:00 +35°C° 0 mm 6 mps 757 mmHg 43%
    14:00 +35°C° 0 mm 6 mps 756 mmHg 44%
    15:00 +34°C° 0 mm 6 mps 756 mmHg 45%
    16:00 +33°C° 0 mm 5 mps 755 mmHg 49%
    17:00 +32°C° 0 mm 5 mps 755 mmHg 52%
    18:00 +32°C° 0 mm 4 mps 755 mmHg 56%
    19:00 +30°C° 0 mm 4 mps 755 mmHg 61%
    20:00 +29°C° 0 mm 4 mps 756 mmHg 65%
    21:00 +28°C° 0 mm 4 mps 756 mmHg 70%
    22:00 +28°C° 0 mm 4 mps 756 mmHg 71%
    23:00 +27°C° 0 mm 4 mps 756 mmHg 72%

    24 July, Wednesday

    Time Temperature Precipitation Wind Pressure Humidity
    00:00 +27°C° 0 mm 3 mps 756 mmHg 73%
    01:00 +27°C° 0 mm 3 mps 756 mmHg 72%
    02:00 +27°C° 0 mm 3 mps 756 mmHg 71%
    03:00 +27°C° 0 mm 3 mps 756 mmHg 71%
    04:00 +27°C° 0 mm 3 mps 756 mmHg 68%
    05:00 +27°C° 0 mm 3 mps 756 mmHg 65%
    06:00 +28°C° 0 mm 3 mps 756 mmHg 63%
    07:00 +29°C° 0 mm 2 mps 756 mmHg 57%
    08:00 +31°C° 0 mm 2 mps 756 mmHg 50%
    09:00 +32°C° 0 mm 1 mps 756 mmHg 44%
    10:00 +34°C° 0 mm 2 mps 756 mmHg 43%
    11:00 +35°C° 0 mm 3 mps 756 mmHg 41%
    12:00 +36°C° 0 mm 3 mps 755 mmHg 40%
    13:00 +36°C° 0 mm 4 mps 755 mmHg 41%
    14:00 +35°C° 0 mm 4 mps 754 mmHg 43%
    15:00 +35°C° 0 mm 5 mps 754 mmHg 44%
    16:00 +34°C° 0 mm 5 mps 754 mmHg 47%
    17:00 +33°C° 0 mm 5 mps 754 mmHg 50%
    18:00 +32°C° 0 mm 5 mps 754 mmHg 54%
    19:00 +30°C° 0 mm 4 mps 755 mmHg 58%
    20:00 +29°C° 0 mm 3 mps 755 mmHg 63%
    21:00 +28°C° 0 mm 2 mps 756 mmHg 68%
    22:00 +27°C° 0 mm 2 mps 756 mmHg 69%
    23:00 +27°C° 0 mm 1 mps 756 mmHg 69%
    Show more